[[{"header":{"parameterUnit":"m.s-1","parameterCategory":1,"la1":30.2991,"la2":30.254,"lo1":-89.0895,"lo2":-89.0444,"dy":0.0017,"dx":0.0017,"nx":28,"ny":28,"refTime":"2023-08-30T09:00:00:Z","depth":0,"parameterNumber":2,"parameterNumberName":"U-component_of_WINDS"},"data":[0,0,0,0,0,0,0,0,0,0,0,0,0,0,0,0,0,0,0,0,0,0,0,0,0,0,0,0,0,0,0,0,0,0,0,0,0,0,0,0,0,0,0,0,0,0,0,0,0,0,0,0,0,0,0,0,0,0,-0.8143,-0.8142,0,-0.8128,-0.8127,-0.8127,-0.803,-0.8028,-0.8026,-0.8023,-0.8012,-0.8014,-0.8016,0,0,0,0,0,0,0,0,0,0,0,0,0,-0.8091,-0.8092,-0.8143,-0.8142,-0.8142,-0.8128,-0.8127,-0.8127,-0.8031,-0.8028,-0.8025,-0.8022,-0.8012,-0.8014,-0.8016,0,0,0,0,0,0,0,0,0,0,0,0,0,-0.8098,-0.8093,-0.8143,-0.8092,-0.8088,-0.8128,-0.8127,-0.8127,-0.8031,-0.8028,-0.8024,-0.8021,-0.8011,-0.8014,-0.8016,-0.8105,0,0,-0.8025,-0.8026,0,0,0,0,0,0,0,0,-0.8098,-0.81,-0.81,-0.8096,-0.8091,-0.8077,-0.8105,-0.812,-0.8032,-0.8053,-0.8023,-0.8019,-0.8037,-0.8037,-0.8043,-0.8104,-0.8104,-0.8025,-0.8027,-0.8028,-0.8029,0,0,0,0,0,0,0,-0.8098,-0.81,-0.8137,-0.81,-0.8094,-0.8071,-0.8068,-0.8107,-0.8065,-0.8051,-0.8044,-0.8043,-0.8034,-0.804,-0.8042,-0.8104,-0.8025,-0.8028,-0.803,-0.8031,-0.8237,-0.8241,0,0,0,0,0,0,-0.8104,-0.8101,-0.8137,-0.8136,-0.8086,-0.8075,-0.8072,-0.8085,-0.8064,-0.8058,-0.8046,-0.8039,-0.8037,-0.8038,-0.8041,-0.8143,-0.8028,-0.8031,-0.8033,-0.8233,-0.8238,-0.8242,0,0,0,0,0,0,-0.8103,-0.8108,-0.8138,-0.8116,-0.8118,-0.808,-0.8095,-0.8087,-0.8093,-0.8061,-0.8053,-0.806,-0.8034,-0.8037,-0.8089,-0.8142,-0.8032,-0.8035,-0.8229,-0.8235,-0.824,-0.835,0,0,0,0,0,0,-0.8102,-0.8108,-0.8141,-0.8118,-0.812,-0.8186,-0.8098,-0.8089,-0.8098,-0.8088,-0.8072,-0.8066,-0.8032,-0.8086,-0.8092,-0.8144,-0.8037,-0.8224,-0.8232,-0.8238,-0.8341,-0.8358,-0.8373,0,0,0,0,0,-0.81,-0.8173,-0.8143,-0.8148,-0.816,-0.8189,-0.8191,-0.8149,-0.8102,-0.8135,-0.8114,-0.8066,-0.8134,-0.8092,-0.8098,-0.8152,-0.8221,-0.8229,-0.8238,-0.8334,-0.8355,-0.8373,0,0,0,0,0,0,-0.8206,-0.817,-0.8136,-0.8203,-0.82,-0.8173,-0.8214,-0.8172,-0.8183,-0.8174,-0.8122,-0.8119,-0.818,-0.817,-0.8124,-0.8236,-0.8169,-0.818,-0.824,-0.826,-0.8275,-0.8277,-0.8039,0,0,0,0,0,-0.8236,-0.8262,-0.8229,-0.8292,-0.8292,-0.8253,-0.8265,-0.8232,-0.8227,-0.8226,-0.8209,-0.8207,-0.8228,-0.8243,-0.826,-0.8338,-0.8334,-0.8378,-0.8394,-0.8407,-0.8417,-0.8458,-0.8478,-0.827,-0.827,-0.827,0,0,-0.8301,-0.8284,-0.8304,-0.8313,-0.8307,-0.8336,-0.8253,-0.8287,-0.8309,-0.8231,-0.828,-0.8267,-0.8262,-0.8328,-0.8356,-0.8322,-0.8473,-0.8418,-0.8429,-0.8432,-0.8469,-0.8489,-0.8506,-0.8276,-0.8275,-0.8274,0,0,-0.8434,-0.8423,-0.8474,-0.8469,-0.846,-0.8433,-0.8445,-0.8424,-0.8412,-0.846,-0.8402,-0.8427,-0.8464,-0.8462,-0.8466,-0.8596,-0.8553,-0.8603,-0.8687,-0.8728,-0.8744,-0.8759,-0.8806,-0.8824,-0.8613,-0.8613,-0.8613,0,-0.8516,-0.8556,-0.8506,-0.8544,-0.855,-0.8479,-0.8531,-0.8528,-0.8526,-0.8532,-0.8493,-0.8537,-0.8529,-0.8593,-0.8625,-0.863,-0.8643,-0.8606,-0.8745,-0.8759,-0.8772,-0.8817,-0.8835,-0.8619,-0.8619,-0.8618,-0.8617,0,-0.8658,-0.8687,-0.8729,-0.8727,-0.8737,-0.8782,-0.874,-0.8756,-0.8722,-0.87,-0.8749,-0.8735,-0.8749,-0.8761,-0.8729,-0.8821,-0.88,-0.8754,-0.8687,-0.8799,-0.884,-0.8857,-0.8628,-0.8626,-0.8624,-0.8623,0,0,-0.886,-0.8827,-0.8844,-0.8842,-0.8825,-0.8847,-0.8888,-0.8899,-0.8915,-0.8915,-0.895,-0.8981,-0.8938,-0.8942,-0.8909,-0.8944,-0.9049,-0.8894,-0.8893,-0.8925,-0.9151,-0.9188,-0.9209,-0.9019,-0.9022,-0.9025,-0.9152,0,-0.8989,-0.9056,-0.9012,-0.9088,-0.9114,-0.9045,-0.9081,-0.9076,-0.9055,-0.9075,-0.9053,-0.9077,-0.9017,-0.9019,-0.9051,-0.903,-0.9095,-0.902,-0.9053,-0.9054,-0.9058,-0.923,-0.9269,-0.939,-0.9168,-0.9171,-0.9173,0,-0.9148,-0.9153,-0.9231,-0.9208,-0.9218,-0.9251,-0.9257,-0.9276,-0.9268,-0.9251,-0.9255,-0.9213,-0.9252,-0.9184,-0.9238,-0.9188,-0.9199,-0.919,-0.9194,-0.9197,-0.9122,-0.924,-0.9428,-0.9447,-0.9197,-0.9196,-0.9194,0,-0.929,-0.9316,-0.9366,-0.9366,-0.934,-0.9365,-0.9356,-0.9344,-0.9353,-0.9359,-0.9364,-0.9375,-0.9382,-0.9392,-0.9353,-0.9306,-0.9413,-0.9341,-0.9402,-0.9403,-0.9429,-0.9429,-0.9624,-0.9433,-0.9432,-0.9432,-0.9432,0,-0.9439,-0.949,-0.9429,-0.946,-0.9515,-0.9462,-0.9519,-0.9502,-0.9492,-0.9519,-0.946,-0.9487,-0.9434,-0.9456,-0.9426,-0.9476,-0.9479,-0.9467,-0.9459,-0.9474,-0.9476,-0.9482,-0.9473,-0.9437,-0.9436,-0.9435,-0.9434,0,-0.9608,-0.9569,-0.9619,-0.9589,-0.9583,-0.9625,-0.96,-0.9628,-0.9602,-0.9637,-0.9643,-0.9603,-0.9626,-0.9587,-0.9606,-0.9585,-0.9656,-0.9634,-0.9659,-0.9653,-0.9716,-0.9712,-0.9924,-0.995,-0.9741,-0.9743,-0.9744,0,-0.9707,-0.9744,-0.9718,-0.9731,-0.9724,-0.9747,-0.9755,-0.9705,-0.9716,-0.9709,-0.9738,-0.9755,-0.9767,-0.9806,-0.978,-0.9794,-0.9773,-0.9846,-0.9775,-0.9788,-0.9776,-0.9775,-0.9779,-0.9862,-0.9864,-0.9866,-0.9868,0,-0.9888,-0.9866,-0.988,-0.9887,-0.9898,-0.9902,-0.9901,-0.9916,-0.9862,-0.9878,-0.99,-0.9908,-0.9926,-0.9944,-0.9951,-0.9942,-0.9898,-0.989,-0.9905,-0.9922,-0.9935,-0.993,-0.9701,-0.9886,-0.9884,-0.9883,-0.9882,-0.9881,-1.0026,-1.0056,-1.0041,-1.0059,-1.0052,-1.0052,-1.0077,-1.0053,-1.007,-1.0079,-1.0048,-1.0077,-1.0067,-1.0071,-1.0067,-1.009,-1.0058,-1.0079,-1.0085,-1.0092,-1.0102,-0.9929,-1.0091,-1.009,-1.009,-1.0089,-1.0089,0,-1.0205,-1.0192,-1.0208,-1.0208,-1.0222,-1.0174,-1.0171,-1.0186,-1.0212,-1.0205,-1.0217,-1.0241,-1.0258,-1.0232,-1.0245,-1.0268,-1.0248,-1.0274,-1.0273,-1.0272,-1.013,-1.0116,-1.029,-1.029,-1.029,-1.029,-1.029,-1.029,-1.03,-1.0348,-1.0324,-1.0368,-1.0355,-1.0381,-1.0383,-1.0383,-1.0378,-1.0407,-1.0421,-1.0403,-1.0389,-1.04,-1.0414,-1.0405,-1.0414,-1.0447,-1.0433,-1.0301,-1.0282,-1.0263,-1.025,-1.0449,-1.0449,-1.0573,-1.0574,-1.0575]},{"header":{"parameterUnit":"m.s-1","parameterCategory":1,"la1":30.2991,"la2":30.254,"lo1":-89.0895,"lo2":-89.0444,"dy":0.0017,"dx":0.0017,"nx":28,"ny":28,"refTime":"2023-08-30T09:00:00:Z","depth":0,"parameterNumber":3,"parameterNumberName":"V-component_of_WINDS"},"data":[0,0,0,0,0,0,0,0,0,0,0,0,0,0,0,0,0,0,0,0,0,0,0,0,0,0,0,0,0,0,0,0,0,0,0,0,0,0,0,0,0,0,0,0,0,0,0,0,0,0,0,0,0,0,0,0,0,0,-4.302,-4.3021,0,-4.3105,-4.3106,-4.3107,-4.3023,-4.302,-4.3017,-4.3014,-4.3097,-4.3102,-4.3108,0,0,0,0,0,0,0,0,0,0,0,0,0,-4.2783,-4.2788,-4.302,-4.3021,-4.3022,-4.3105,-4.3106,-4.3107,-4.3024,-4.302,-4.3016,-4.3012,-4.3096,-4.3102,-4.3108,0,0,0,0,0,0,0,0,0,0,0,0,0,-4.2879,-4.279,-4.302,-4.2991,-4.2989,-4.3104,-4.3106,-4.3107,-4.3025,-4.302,-4.3015,-4.301,-4.3094,-4.3101,-4.3109,-4.3256,0,0,-4.3133,-4.3137,0,0,0,0,0,0,0,0,-4.2873,-4.2888,-4.2994,-4.2993,-4.2991,-4.3049,-4.3053,-4.3157,-4.3026,-4.3011,-4.3014,-4.3008,-4.3085,-4.3093,-4.312,-4.326,-4.3264,-4.3134,-4.3139,-4.3142,-4.3144,0,0,0,0,0,0,0,-4.2867,-4.2883,-4.3053,-4.2996,-4.2994,-4.2972,-4.2981,-4.3072,-4.3074,-4.3012,-4.3006,-4.3018,-4.3083,-4.3112,-4.3121,-4.3265,-4.3134,-4.3141,-4.3146,-4.3149,-4.3528,-4.3533,0,0,0,0,0,0,-4.2864,-4.2878,-4.3051,-4.3056,-4.2919,-4.2981,-4.299,-4.3035,-4.3073,-4.3074,-4.3022,-4.3013,-4.3101,-4.3112,-4.3124,-4.3298,-4.3142,-4.3149,-4.3154,-4.3523,-4.3529,-4.3535,0,0,0,0,0,0,-4.2859,-4.288,-4.3047,-4.2966,-4.2985,-4.299,-4.3042,-4.3039,-4.3068,-4.3081,-4.308,-4.3051,-4.3098,-4.3113,-4.3224,-4.3299,-4.3153,-4.316,-4.3517,-4.3525,-4.3532,-4.3647,0,0,0,0,0,0,-4.2853,-4.2879,-4.2936,-4.2968,-4.299,-4.3148,-4.3046,-4.3045,-4.3083,-4.3073,-4.3108,-4.3109,-4.3095,-4.3212,-4.3232,-4.3308,-4.3166,-4.351,-4.352,-4.353,-4.3637,-4.3658,-4.3677,0,0,0,0,0,-4.2845,-4.2965,-4.2939,-4.2961,-4.3062,-4.3152,-4.3165,-4.3147,-4.3089,-4.3146,-4.3153,-4.3108,-4.3288,-4.3224,-4.3245,-4.3325,-4.3505,-4.3517,-4.3529,-4.3628,-4.3654,-4.3676,0,0,0,0,0,0,-4.2941,-4.2968,-4.2941,-4.3075,-4.3112,-4.3138,-4.3209,-4.3175,-4.3229,-4.3217,-4.3191,-4.32,-4.3318,-4.3332,-4.3261,-4.3468,-4.3387,-4.3404,-4.3455,-4.348,-4.3499,-4.3493,-4.3173,0,0,0,0,0,-4.2978,-4.3051,-4.307,-4.3186,-4.3206,-4.3205,-4.3244,-4.3226,-4.3263,-4.3278,-4.3294,-4.3331,-4.3395,-4.3438,-4.3498,-4.3638,-4.3644,-4.3703,-4.3723,-4.3739,-4.3754,-4.3828,-4.3854,-4.3575,-4.3574,-4.3574,0,0,-4.3055,-4.3079,-4.3126,-4.3206,-4.3233,-4.3307,-4.3219,-4.3301,-4.3356,-4.329,-4.3397,-4.3409,-4.3448,-4.3574,-4.363,-4.359,-4.3832,-4.3754,-4.3767,-4.3773,-4.3843,-4.3869,-4.3893,-4.3583,-4.3581,-4.358,0,0,-4.3233,-4.3259,-4.3359,-4.3387,-4.3429,-4.3427,-4.3451,-4.3482,-4.3488,-4.3594,-4.3547,-4.361,-4.3722,-4.3752,-4.3781,-4.3969,-4.393,-4.399,-4.4094,-4.4166,-4.4188,-4.4207,-4.4274,-4.4298,-4.4004,-4.4004,-4.4005,0,-4.3324,-4.3435,-4.3414,-4.35,-4.3536,-4.3481,-4.358,-4.3609,-4.3668,-4.3693,-4.3647,-4.3786,-4.3808,-4.394,-4.3986,-4.4012,-4.4037,-4.3986,-4.4187,-4.4206,-4.4224,-4.4286,-4.4312,-4.4011,-4.4011,-4.401,-4.4009,0,-4.3543,-4.3621,-4.3696,-4.3755,-4.3799,-4.3892,-4.3883,-4.393,-4.3909,-4.3911,-4.4019,-4.4044,-4.4108,-4.4137,-4.4117,-4.4266,-4.4239,-4.4191,-4.4108,-4.4258,-4.4316,-4.434,-4.4021,-4.4019,-4.4017,-4.4015,0,0,-4.3785,-4.3831,-4.3859,-4.3885,-4.3926,-4.3985,-4.4074,-4.4137,-4.4178,-4.422,-4.4293,-4.4388,-4.4343,-4.4377,-4.4359,-4.4423,-4.4569,-4.4366,-4.4366,-4.4402,-4.4733,-4.4769,-4.4798,-4.4542,-4.4547,-4.4551,-4.4729,0,-4.3964,-4.412,-4.4103,-4.4251,-4.4322,-4.427,-4.4347,-4.4381,-4.4385,-4.4444,-4.4448,-4.4516,-4.4452,-4.4471,-4.4532,-4.4538,-4.4635,-4.4525,-4.4609,-4.4612,-4.4601,-4.4829,-4.4868,-4.5035,-4.4752,-4.4756,-4.4759,0,-4.4195,-4.4245,-4.4401,-4.4431,-4.446,-4.453,-4.4585,-4.4643,-4.4679,-4.4677,-4.4715,-4.4686,-4.4773,-4.4689,-4.4809,-4.4734,-4.4767,-4.4776,-4.4782,-4.4789,-4.4695,-4.4841,-4.5088,-4.5114,-4.4795,-4.4792,-4.479,0,-4.4355,-4.4462,-4.4569,-4.4592,-4.463,-4.468,-4.4698,-4.4729,-4.4767,-4.4815,-4.484,-4.4897,-4.4929,-4.4973,-4.496,-4.49,-4.5082,-4.4997,-4.5082,-4.5083,-4.5123,-4.5121,-4.5379,-4.5145,-4.5145,-4.5144,-4.5144,0,-4.4557,-4.4654,-4.4641,-4.4707,-4.4814,-4.4792,-4.4898,-4.4908,-4.4936,-4.5002,-4.496,-4.5022,-4.5001,-4.5061,-4.5051,-4.5151,-4.5166,-4.5166,-4.5162,-4.517,-4.517,-4.5191,-4.5179,-4.5151,-4.5149,-4.5148,-4.5147,0,-4.4754,-4.475,-4.4863,-4.4889,-4.4897,-4.4975,-4.4996,-4.5057,-4.5057,-4.5141,-4.5159,-4.516,-4.5229,-4.522,-4.5296,-4.5289,-4.5414,-4.5396,-4.5402,-4.5398,-4.5484,-4.5476,-4.5764,-4.5801,-4.5544,-4.5546,-4.5548,0,-4.4883,-4.4957,-4.499,-4.5032,-4.5053,-4.5121,-4.516,-4.5141,-4.5183,-4.5229,-4.5284,-4.5349,-4.54,-4.5513,-4.5519,-4.5577,-4.556,-4.5657,-4.5569,-4.5574,-4.5561,-4.5557,-4.5563,-4.5675,-4.5678,-4.568,-4.5682,0,-4.5112,-4.5106,-4.5165,-4.5223,-4.5271,-4.5316,-4.5356,-4.5392,-4.5376,-4.5426,-4.5496,-4.5536,-4.5614,-4.5679,-4.5734,-4.575,-4.5714,-4.571,-4.5732,-4.5741,-4.5742,-4.5742,-4.545,-4.5703,-4.5701,-4.57,-4.5698,-4.5698,-4.5279,-4.5341,-4.5375,-4.5441,-4.547,-4.5508,-4.5566,-4.5574,-4.5633,-4.5696,-4.568,-4.576,-4.5792,-4.5861,-4.5883,-4.5944,-4.5908,-4.5941,-4.595,-4.5958,-4.5968,-4.5732,-4.5954,-4.5953,-4.5953,-4.5952,-4.5952,0,-4.5505,-4.5524,-4.5586,-4.5643,-4.5695,-4.5657,-4.5699,-4.5744,-4.5815,-4.5849,-4.59,-4.598,-4.6043,-4.6054,-4.6113,-4.616,-4.6144,-4.6176,-4.6172,-4.6176,-4.5997,-4.5971,-4.6187,-4.6187,-4.6187,-4.6187,-4.6187,-4.6187,-4.5629,-4.5733,-4.5731,-4.5847,-4.5865,-4.5943,-4.597,-4.6005,-4.6031,-4.6123,-4.6175,-4.6182,-4.6206,-4.6266,-4.6322,-4.6323,-4.6346,-4.6385,-4.638,-4.6212,-4.6189,-4.6166,-4.6142,-4.639,-4.639,-4.6553,-4.6555,-4.6556]}]]